Time,TemperatureF,DewpointF,PressureIn,WindDirection,WindDirectionDegrees,WindSpeedMPH,WindSpeedGustMPH,Humidity,HourlyPrecipIn,Conditions,Clouds,dailyrainin,SolarRadiationWatts/m^2,SoftwareType,DateUTC
2013-02-12 00:11:00,21.0,8.0,-100.00,SSE,151,0.0,2.0,56,0.00,,,0.00,0.000000,,2013-02-12 08:11:00,
2013-02-12 00:21:00,21.0,8.0,-100.00,SSE,151,0.0,2.0,56,0.00,,,0.00,0.000000,,2013-02-12 08:21:00,
2013-02-12 00:31:00,21.0,8.0,-100.00,SSE,151,0.0,2.0,56,0.00,,,0.00,0.000000,,2013-02-12 08:31:00,
2013-02-12 00:41:00,21.0,8.0,-100.00,SSE,151,0.0,2.0,56,0.00,,,0.00,0.000000,,2013-02-12 08:41:00,
2013-02-12 01:11:00,19.0,8.0,-100.00,SE,138,0.0,2.0,61,0.00,,,0.00,0.000000,,2013-02-12 09:11:00,
2013-02-12 01:21:00,19.0,8.0,-100.00,SE,138,0.0,2.0,61,0.00,,,0.00,0.000000,,2013-02-12 09:21:00,
2013-02-12 01:31:00,19.0,8.0,-100.00,SE,138,0.0,2.0,61,0.00,,,0.00,0.000000,,2013-02-12 09:31:00,
2013-02-12 01:41:00,19.0,8.0,-100.00,SE,138,0.0,2.0,61,0.00,,,0.00,0.000000,,2013-02-12 09:41:00,
2013-02-12 02:11:00,19.0,9.0,-100.00,SE,144,0.0,2.0,63,0.00,,,0.00,0.000000,,2013-02-12 10:11:00,
2013-02-12 02:21:00,19.0,9.0,-100.00,SE,144,0.0,2.0,63,0.00,,,0.00,0.000000,,2013-02-12 10:21:00,
2013-02-12 02:31:00,19.0,9.0,-100.00,SE,144,0.0,2.0,63,0.00,,,0.00,0.000000,,2013-02-12 10:31:00,
2013-02-12 03:11:00,18.0,8.0,-100.00,South,174,0.0,3.0,64,0.00,,,0.00,0.000000,,2013-02-12 11:11:00,
2013-02-12 03:21:00,18.0,8.0,-100.00,South,174,0.0,3.0,64,0.00,,,0.00,0.000000,,2013-02-12 11:21:00,
2013-02-12 03:31:00,18.0,8.0,-100.00,South,174,0.0,3.0,64,0.00,,,0.00,0.000000,,2013-02-12 11:31:00,
2013-02-12 03:41:00,18.0,8.0,-100.00,South,174,0.0,3.0,64,0.00,,,0.00,0.000000,,2013-02-12 11:41:00,
2013-02-12 04:11:00,18.0,9.0,-100.00,SSE,150,0.0,0.0,67,0.00,,,0.00,0.000000,,2013-02-12 12:11:00,
2013-02-12 04:21:00,18.0,9.0,-100.00,SSE,150,0.0,0.0,67,0.00,,,0.00,0.000000,,2013-02-12 12:21:00,
2013-02-12 04:32:00,18.0,9.0,-100.00,SSE,150,0.0,0.0,67,0.00,,,0.00,0.000000,,2013-02-12 12:32:00,
2013-02-12 04:42:00,18.0,9.0,-100.00,SSE,150,0.0,0.0,67,0.00,,,0.00,0.000000,,2013-02-12 12:42:00,
2013-02-12 05:11:00,18.0,9.0,-100.00,SE,134,0.0,0.0,68,0.00,,,0.00,0.000000,,2013-02-12 13:11:00,
2013-02-12 05:22:00,18.0,9.0,-100.00,SE,134,0.0,0.0,68,0.00,,,0.00,0.000000,,2013-02-12 13:22:00,
2013-02-12 05:31:00,18.0,9.0,-100.00,SE,134,0.0,0.0,68,0.00,,,0.00,0.000000,,2013-02-12 13:31:00,
2013-02-12 05:42:00,18.0,9.0,-100.00,SE,134,0.0,0.0,68,0.00,,,0.00,0.000000,,2013-02-12 13:42:00,
2013-02-12 06:11:00,17.0,9.0,-100.00,SSE,152,0.0,3.0,70,0.00,,,0.00,0.000000,,2013-02-12 14:11:00,
2013-02-12 06:21:00,17.0,9.0,-100.00,SSE,152,0.0,3.0,70,0.00,,,0.00,0.000000,,2013-02-12 14:21:00,
2013-02-12 06:31:00,17.0,9.0,-100.00,SSE,152,0.0,3.0,70,0.00,,,0.00,0.000000,,2013-02-12 14:31:00,
2013-02-12 06:41:00,17.0,9.0,-100.00,SSE,152,0.0,3.0,70,0.00,,,0.00,0.000000,,2013-02-12 14:41:00,
2013-02-12 07:11:00,17.0,10.0,-100.00,SE,144,0.0,0.0,73,0.00,,,0.00,0.000000,,2013-02-12 15:11:00,
2013-02-12 07:21:00,17.0,10.0,-100.00,SE,144,0.0,0.0,73,0.00,,,0.00,0.000000,,2013-02-12 15:21:00,
2013-02-12 07:32:00,17.0,10.0,-100.00,SE,144,0.0,0.0,73,0.00,,,0.00,0.000000,,2013-02-12 15:32:00,
2013-02-12 07:41:00,17.0,10.0,-100.00,SE,144,0.0,0.0,73,0.00,,,0.00,0.000000,,2013-02-12 15:41:00,
2013-02-12 08:11:00,18.0,9.0,-100.00,SSE,147,0.0,0.0,68,0.00,,,0.00,19.000000,,2013-02-12 16:11:00,
2013-02-12 08:22:00,18.0,9.0,-100.00,SSE,147,0.0,0.0,68,0.00,,,0.00,19.000000,,2013-02-12 16:22:00,
2013-02-12 08:31:00,18.0,9.0,-100.00,SSE,147,0.0,0.0,68,0.00,,,0.00,19.000000,,2013-02-12 16:31:00,
2013-02-12 08:41:00,18.0,9.0,-100.00,SSE,147,0.0,0.0,68,0.00,,,0.00,19.000000,,2013-02-12 16:41:00,
2013-02-12 09:11:00,30.0,12.0,-100.00,SSE,153,0.0,2.0,46,0.00,,,0.00,257.000000,,2013-02-12 17:11:00,
2013-02-12 09:21:00,30.0,12.0,-100.00,SSE,153,0.0,2.0,46,0.00,,,0.00,257.000000,,2013-02-12 17:21:00,
2013-02-12 09:31:00,30.0,12.0,-100.00,SSE,153,0.0,2.0,46,0.00,,,0.00,257.000000,,2013-02-12 17:31:00,
2013-02-12 09:41:00,30.0,12.0,-100.00,SSE,153,0.0,2.0,46,0.00,,,0.00,257.000000,,2013-02-12 17:41:00,
2013-02-12 10:11:00,40.0,10.0,-100.00,SSE,147,0.0,0.0,29,0.00,,,0.00,465.000000,,2013-02-12 18:11:00,
2013-02-12 10:22:00,40.0,10.0,-100.00,SSE,147,0.0,0.0,29,0.00,,,0.00,465.000000,,2013-02-12 18:22:00,
2013-02-12 10:31:00,40.0,10.0,-100.00,SSE,147,0.0,0.0,29,0.00,,,0.00,465.000000,,2013-02-12 18:31:00,
2013-02-12 10:41:00,40.0,10.0,-100.00,SSE,147,0.0,0.0,29,0.00,,,0.00,465.000000,,2013-02-12 18:41:00,
2013-02-12 11:11:00,44.0,9.0,-100.00,ENE,77,1.0,4.0,23,0.00,,,0.00,626.000000,,2013-02-12 19:11:00,
2013-02-12 11:21:00,44.0,9.0,-100.00,ENE,77,1.0,4.0,23,0.00,,,0.00,626.000000,,2013-02-12 19:21:00,
2013-02-12 11:31:00,44.0,9.0,-100.00,ENE,77,1.0,4.0,23,0.00,,,0.00,626.000000,,2013-02-12 19:31:00,
2013-02-12 11:41:00,44.0,9.0,-100.00,ENE,77,1.0,4.0,23,0.00,,,0.00,626.000000,,2013-02-12 19:41:00,
2013-02-12 12:11:00,46.0,12.0,-100.00,NE,54,2.0,7.0,25,0.00,,,0.00,674.000000,,2013-02-12 20:11:00,
2013-02-12 12:21:00,46.0,12.0,-100.00,NE,54,2.0,7.0,25,0.00,,,0.00,674.000000,,2013-02-12 20:21:00,
2013-02-12 12:31:00,46.0,12.0,-100.00,NE,54,2.0,7.0,25,0.00,,,0.00,674.000000,,2013-02-12 20:31:00,
2013-02-12 12:41:00,46.0,12.0,-100.00,NE,54,2.0,7.0,25,0.00,,,0.00,674.000000,,2013-02-12 20:41:00,
2013-02-12 13:11:00,49.0,16.0,-100.00,NE,51,3.0,9.0,26,0.00,,,0.00,747.000000,,2013-02-12 21:11:00,
2013-02-12 13:21:00,49.0,16.0,-100.00,NE,51,3.0,9.0,26,0.00,,,0.00,747.000000,,2013-02-12 21:21:00,
2013-02-12 13:31:00,49.0,16.0,-100.00,NE,51,3.0,9.0,26,0.00,,,0.00,747.000000,,2013-02-12 21:31:00,
2013-02-12 13:41:00,49.0,16.0,-100.00,NE,51,3.0,9.0,26,0.00,,,0.00,747.000000,,2013-02-12 21:41:00,
2013-02-12 14:12:00,49.0,16.0,-100.00,NNE,20,4.0,12.0,26,0.00,,,0.00,728.000000,,2013-02-12 22:12:00,
2013-02-12 14:21:00,49.0,16.0,-100.00,NNE,20,4.0,12.0,26,0.00,,,0.00,728.000000,,2013-02-12 22:21:00,
2013-02-12 14:31:00,49.0,16.0,-100.00,NNE,20,4.0,12.0,26,0.00,,,0.00,728.000000,,2013-02-12 22:31:00,
2013-02-12 14:41:00,49.0,16.0,-100.00,NNE,20,4.0,12.0,26,0.00,,,0.00,728.000000,,2013-02-12 22:41:00,
2013-02-12 15:11:00,49.0,13.0,-100.00,North,8,3.0,10.0,23,0.00,,,0.00,631.000000,,2013-02-12 23:11:00,
2013-02-12 15:21:00,49.0,13.0,-100.00,North,8,3.0,10.0,23,0.00,,,0.00,631.000000,,2013-02-12 23:21:00,
2013-02-12 15:31:00,49.0,13.0,-100.00,North,8,3.0,10.0,23,0.00,,,0.00,631.000000,,2013-02-12 23:31:00,
2013-02-12 15:41:00,49.0,13.0,-100.00,North,8,3.0,10.0,23,0.00,,,0.00,631.000000,,2013-02-12 23:41:00,
2013-02-12 16:11:00,50.0,15.0,-100.00,NNW,344,4.0,9.0,24,0.00,,,0.00,470.000000,,2013-02-13 00:11:00,
2013-02-12 16:21:00,50.0,15.0,-100.00,NNW,344,4.0,9.0,24,0.00,,,0.00,470.000000,,2013-02-13 00:21:00,
2013-02-12 16:32:00,50.0,15.0,-100.00,NNW,344,4.0,9.0,24,0.00,,,0.00,470.000000,,2013-02-13 00:32:00,
2013-02-12 16:42:00,50.0,15.0,-100.00,NNW,344,4.0,9.0,24,0.00,,,0.00,470.000000,,2013-02-13 00:42:00,
2013-02-12 17:42:00,47.0,11.0,-100.00,SW,231,1.0,10.0,23,0.00,,,0.00,265.000000,,2013-02-13 01:42:00,
2013-02-12 18:11:00,36.0,12.0,-100.00,SE,143,0.0,6.0,36,0.00,,,0.00,37.000000,,2013-02-13 02:11:00,
2013-02-12 18:21:00,36.0,12.0,-100.00,SE,143,0.0,6.0,36,0.00,,,0.00,37.000000,,2013-02-13 02:21:00,
2013-02-12 18:31:00,36.0,12.0,-100.00,SE,143,0.0,6.0,36,0.00,,,0.00,37.000000,,2013-02-13 02:31:00,
2013-02-12 18:41:00,36.0,12.0,-100.00,SE,143,0.0,6.0,36,0.00,,,0.00,37.000000,,2013-02-13 02:41:00,
2013-02-12 19:11:00,34.0,12.0,-100.00,SSE,150,0.0,5.0,40,0.00,,,0.00,0.000000,,2013-02-13 03:11:00,
2013-02-12 19:21:00,34.0,12.0,-100.00,SSE,150,0.0,5.0,40,0.00,,,0.00,0.000000,,2013-02-13 03:21:00,
2013-02-12 19:32:00,34.0,12.0,-100.00,SSE,150,0.0,5.0,40,0.00,,,0.00,0.000000,,2013-02-13 03:32:00,
2013-02-12 19:41:00,34.0,12.0,-100.00,SSE,150,0.0,5.0,40,0.00,,,0.00,0.000000,,2013-02-13 03:41:00,
2013-02-12 20:11:00,30.0,12.0,-100.00,SE,141,0.0,3.0,47,0.00,,,0.00,0.000000,,2013-02-13 04:11:00,
2013-02-12 20:21:00,30.0,12.0,-100.00,SE,141,0.0,3.0,47,0.00,,,0.00,0.000000,,2013-02-13 04:21:00,
2013-02-12 20:31:00,30.0,12.0,-100.00,SE,141,0.0,3.0,47,0.00,,,0.00,0.000000,,2013-02-13 04:31:00,
2013-02-12 20:41:00,30.0,12.0,-100.00,SE,141,0.0,3.0,47,0.00,,,0.00,0.000000,,2013-02-13 04:41:00,
2013-02-12 21:11:00,28.0,13.0,-100.00,SE,139,0.0,0.0,53,0.00,,,0.00,0.000000,,2013-02-13 05:11:00,
2013-02-12 21:22:00,28.0,13.0,-100.00,SE,139,0.0,0.0,53,0.00,,,0.00,0.000000,,2013-02-13 05:22:00,
2013-02-12 21:31:00,28.0,13.0,-100.00,SE,139,0.0,0.0,53,0.00,,,0.00,0.000000,,2013-02-13 05:31:00,
2013-02-12 21:41:00,28.0,13.0,-100.00,SE,139,0.0,0.0,53,0.00,,,0.00,0.000000,,2013-02-13 05:41:00,
2013-02-12 22:11:00,27.0,14.0,-100.00,SE,146,0.0,0.0,57,0.00,,,0.00,0.000000,,2013-02-13 06:11:00,
2013-02-12 22:21:00,27.0,14.0,-100.00,SE,146,0.0,0.0,57,0.00,,,0.00,0.000000,,2013-02-13 06:21:00,
2013-02-12 22:31:00,27.0,14.0,-100.00,SE,146,0.0,0.0,57,0.00,,,0.00,0.000000,,2013-02-13 06:31:00,
2013-02-12 22:41:00,27.0,14.0,-100.00,SE,146,0.0,0.0,57,0.00,,,0.00,0.000000,,2013-02-13 06:41:00,
2013-02-12 23:11:00,25.0,13.0,-100.00,SSE,152,0.0,0.0,60,0.00,,,0.00,0.000000,,2013-02-13 07:11:00,
2013-02-12 23:21:00,25.0,13.0,-100.00,SSE,152,0.0,0.0,60,0.00,,,0.00,0.000000,,2013-02-13 07:21:00,
2013-02-12 23:31:00,25.0,13.0,-100.00,SSE,152,0.0,0.0,60,0.00,,,0.00,0.000000,,2013-02-13 07:31:00,